[[{"header":{"parameterUnit":"m.s-1","parameterCategory":1,"la1":30.2991,"la2":30.254,"lo1":-89.0895,"lo2":-89.0444,"dy":0.0017,"dx":0.0017,"nx":28,"ny":28,"refTime":"2025-04-27T09:00:00:Z","depth":0,"parameterNumber":2,"parameterNumberName":"U-component_of_WINDS"},"data":[0,0,0,0,0,0,0,0,0,0,0,0,0,0,0,0,0,0,0,0,0,0,0,0,0,0,0,0,0,0,0,0,0,0,0,0,0,0,0,0,0,0,0,0,0,0,0,0,0,0,0,0,0,0,0,0,0,0,-1.5246,-1.5245,0,-1.5132,-1.5131,-1.5129,-1.5075,-1.5075,-1.5075,-1.5075,-1.4952,-1.4949,-1.4946,0,0,0,0,0,0,0,0,0,0,0,0,0,-1.5413,-1.541,-1.5246,-1.5245,-1.5243,-1.5132,-1.5131,-1.5129,-1.5075,-1.5075,-1.5075,-1.5075,-1.4953,-1.4949,-1.4946,0,0,0,0,0,0,0,0,0,0,0,0,0,-1.5324,-1.5409,-1.5246,-1.5203,-1.5198,-1.5133,-1.5131,-1.5129,-1.5074,-1.5075,-1.5075,-1.5075,-1.4955,-1.495,-1.4945,-1.4913,0,0,-1.493,-1.4928,0,0,0,0,0,0,0,0,-1.5329,-1.5318,-1.5211,-1.5206,-1.52,-1.5118,-1.5144,-1.5056,-1.5074,-1.5121,-1.5075,-1.5075,-1.5007,-1.4998,-1.4976,-1.4907,-1.4902,-1.4929,-1.4926,-1.4924,-1.4923,0,0,0,0,0,0,0,-1.5335,-1.5322,-1.5201,-1.5209,-1.5203,-1.5188,-1.5175,-1.5127,-1.5065,-1.5117,-1.5113,-1.51,-1.5004,-1.4981,-1.4973,-1.49,-1.4929,-1.4925,-1.4922,-1.492,-1.4799,-1.4799,0,0,0,0,0,0,-1.5349,-1.5328,-1.5204,-1.5197,-1.5266,-1.5185,-1.5171,-1.5144,-1.5065,-1.5053,-1.51,-1.5098,-1.4989,-1.4978,-1.4968,-1.4925,-1.4924,-1.492,-1.4917,-1.4799,-1.4799,-1.4799,0,0,0,0,0,0,-1.5353,-1.5339,-1.5209,-1.5261,-1.5244,-1.5182,-1.5152,-1.5142,-1.5118,-1.5053,-1.5041,-1.5089,-1.4989,-1.4975,-1.4927,-1.492,-1.4917,-1.4913,-1.48,-1.4799,-1.4799,-1.484,0,0,0,0,0,0,-1.5358,-1.534,-1.5328,-1.5262,-1.5241,-1.5172,-1.5152,-1.5139,-1.5111,-1.5107,-1.5038,-1.5027,-1.4988,-1.4935,-1.4922,-1.4913,-1.4909,-1.48,-1.48,-1.4799,-1.4839,-1.4841,-1.4843,0,0,0,0,0,-1.5364,-1.5343,-1.5328,-1.5313,-1.5225,-1.5171,-1.5159,-1.5116,-1.511,-1.5097,-1.5055,-1.5029,-1.4924,-1.4931,-1.4916,-1.4905,-1.48,-1.48,-1.4799,-1.4838,-1.4841,-1.4843,0,0,0,0,0,0,-1.5408,-1.5333,-1.5316,-1.5273,-1.5229,-1.5162,-1.5144,-1.512,-1.5076,-1.5074,-1.5021,-1.5006,-1.4963,-1.4929,-1.4939,-1.487,-1.4859,-1.4856,-1.4894,-1.4896,-1.4898,-1.4906,-1.4905,0,0,0,0,0,-1.5413,-1.5377,-1.5313,-1.5281,-1.5261,-1.5207,-1.5181,-1.5152,-1.5104,-1.5085,-1.5039,-1.4992,-1.4948,-1.492,-1.4876,-1.4834,-1.4818,-1.482,-1.4822,-1.4824,-1.4821,-1.4797,-1.4796,-1.4797,-1.4797,-1.4797,0,0,-1.5422,-1.5377,-1.5357,-1.5289,-1.5252,-1.5215,-1.5191,-1.5152,-1.5124,-1.5078,-1.5031,-1.4996,-1.494,-1.4895,-1.4873,-1.4866,-1.4817,-1.4823,-1.4825,-1.4821,-1.4796,-1.4796,-1.4796,-1.4797,-1.4797,-1.4797,0,0,-1.542,-1.5383,-1.5352,-1.5316,-1.5261,-1.5225,-1.5219,-1.5156,-1.5131,-1.5084,-1.5049,-1.5014,-1.4939,-1.4901,-1.4872,-1.4857,-1.4832,-1.4844,-1.4854,-1.4831,-1.4831,-1.4831,-1.4826,-1.4825,-1.4842,-1.4842,-1.4842,0,-1.5438,-1.5382,-1.5339,-1.5303,-1.5274,-1.5234,-1.5202,-1.5169,-1.5101,-1.5081,-1.5075,-1.4982,-1.4941,-1.4887,-1.4884,-1.4862,-1.4851,-1.4851,-1.4835,-1.4834,-1.4833,-1.4828,-1.4826,-1.4844,-1.4844,-1.4844,-1.4843,0,-1.5407,-1.5369,-1.5351,-1.5289,-1.5258,-1.5225,-1.5176,-1.5149,-1.5123,-1.5088,-1.504,-1.4991,-1.4936,-1.4921,-1.4895,-1.4864,-1.4861,-1.4846,-1.4833,-1.4836,-1.483,-1.4827,-1.4847,-1.4846,-1.4846,-1.4845,0,0,-1.5427,-1.5345,-1.5339,-1.5311,-1.5248,-1.5217,-1.5181,-1.513,-1.5109,-1.5064,-1.5032,-1.4971,-1.4957,-1.4924,-1.4893,-1.4873,-1.4865,-1.4859,-1.4857,-1.4862,-1.4828,-1.484,-1.4839,-1.4848,-1.4848,-1.4847,-1.4833,0,-1.5416,-1.5353,-1.5314,-1.5266,-1.523,-1.5192,-1.5161,-1.5119,-1.5085,-1.5049,-1.5011,-1.4969,-1.4953,-1.4933,-1.4912,-1.4871,-1.4857,-1.4871,-1.4817,-1.4816,-1.4832,-1.4835,-1.4847,-1.4836,-1.483,-1.483,-1.4829,0,-1.5394,-1.5353,-1.5302,-1.5245,-1.5228,-1.5201,-1.5152,-1.5118,-1.5069,-1.5046,-1.5011,-1.498,-1.494,-1.4933,-1.4876,-1.4887,-1.4862,-1.4839,-1.4837,-1.483,-1.4822,-1.4828,-1.4831,-1.483,-1.4825,-1.4826,-1.4826,0,-1.5415,-1.5346,-1.5307,-1.5284,-1.5216,-1.5198,-1.5169,-1.512,-1.5092,-1.5049,-1.503,-1.4982,-1.4955,-1.4918,-1.4875,-1.4873,-1.4823,-1.4812,-1.4802,-1.4803,-1.4792,-1.4794,-1.4792,-1.4778,-1.4778,-1.4778,-1.4778,0,-1.5406,-1.5376,-1.5316,-1.5292,-1.5257,-1.5213,-1.5179,-1.5146,-1.5103,-1.5071,-1.5035,-1.5005,-1.495,-1.4913,-1.4879,-1.4838,-1.4826,-1.4806,-1.4797,-1.4809,-1.4811,-1.4791,-1.4791,-1.4778,-1.4778,-1.4778,-1.4778,0,-1.5423,-1.5381,-1.5336,-1.5276,-1.526,-1.5237,-1.5185,-1.516,-1.5126,-1.5086,-1.5073,-1.5019,-1.4974,-1.4928,-1.4866,-1.4843,-1.4803,-1.4791,-1.482,-1.4815,-1.4809,-1.481,-1.4794,-1.4789,-1.4779,-1.4779,-1.4779,0,-1.542,-1.5396,-1.5335,-1.5312,-1.5284,-1.5247,-1.5219,-1.5175,-1.5147,-1.5091,-1.5072,-1.5025,-1.4985,-1.4915,-1.4869,-1.4822,-1.4808,-1.4806,-1.48,-1.4813,-1.4808,-1.4809,-1.4807,-1.4807,-1.4808,-1.4808,-1.4808,0,-1.5419,-1.54,-1.5362,-1.5318,-1.5287,-1.5249,-1.521,-1.5193,-1.514,-1.5111,-1.5066,-1.5035,-1.4974,-1.4927,-1.4875,-1.4843,-1.4816,-1.4811,-1.4806,-1.4817,-1.4835,-1.4825,-1.4825,-1.4811,-1.481,-1.481,-1.481,-1.481,-1.5425,-1.5403,-1.5357,-1.5316,-1.5283,-1.5248,-1.5221,-1.5185,-1.5147,-1.5095,-1.5071,-1.5026,-1.4978,-1.4906,-1.4874,-1.4838,-1.483,-1.4823,-1.4821,-1.482,-1.4823,-1.4842,-1.4828,-1.4828,-1.4828,-1.4827,-1.4827,0,-1.5422,-1.5391,-1.5355,-1.5303,-1.5271,-1.5251,-1.5207,-1.5182,-1.5143,-1.5102,-1.5064,-1.5013,-1.4968,-1.4919,-1.4871,-1.4851,-1.4838,-1.484,-1.4841,-1.4834,-1.4833,-1.4842,-1.4852,-1.4852,-1.4852,-1.4852,-1.4852,-1.4852,-1.5417,-1.5379,-1.5355,-1.5299,-1.5268,-1.5225,-1.5202,-1.5169,-1.5136,-1.5081,-1.5045,-1.5014,-1.4969,-1.4919,-1.4876,-1.4863,-1.4847,-1.4853,-1.4836,-1.4836,-1.4834,-1.4832,-1.484,-1.485,-1.485,-1.484,-1.484,-1.484]},{"header":{"parameterUnit":"m.s-1","parameterCategory":1,"la1":30.2991,"la2":30.254,"lo1":-89.0895,"lo2":-89.0444,"dy":0.0017,"dx":0.0017,"nx":28,"ny":28,"refTime":"2025-04-27T09:00:00:Z","depth":0,"parameterNumber":3,"parameterNumberName":"V-component_of_WINDS"},"data":[0,0,0,0,0,0,0,0,0,0,0,0,0,0,0,0,0,0,0,0,0,0,0,0,0,0,0,0,0,0,0,0,0,0,0,0,0,0,0,0,0,0,0,0,0,0,0,0,0,0,0,0,0,0,0,0,0,0,2.4245,2.4243,0,2.4131,2.4129,2.4128,2.4092,2.4093,2.4093,2.4094,2.3972,2.3969,2.3965,0,0,0,0,0,0,0,0,0,0,0,0,0,2.4429,2.4426,2.4245,2.4243,2.4242,2.4131,2.4129,2.4128,2.4092,2.4093,2.4093,2.4094,2.3974,2.3969,2.3965,0,0,0,0,0,0,0,0,0,0,0,0,0,2.4335,2.4425,2.4245,2.4211,2.4207,2.4131,2.4129,2.4127,2.4092,2.4093,2.4094,2.4094,2.3975,2.397,2.3964,2.3913,0,0,2.3947,2.3944,0,0,0,0,0,0,0,0,2.4341,2.4329,2.4217,2.4213,2.4208,2.4127,2.415,2.4055,2.4092,2.4135,2.4094,2.4095,2.4023,2.4013,2.399,2.3907,2.3902,2.3946,2.3943,2.3941,2.3939,0,0,0,0,0,0,0,2.4347,2.4333,2.4199,2.4216,2.421,2.42,2.4188,2.4132,2.4076,2.4132,2.4129,2.4116,2.402,2.3995,2.3987,2.39,2.3947,2.3942,2.3938,2.3936,2.377,2.3769,0,0,0,0,0,0,2.436,2.4339,2.4203,2.4196,2.4278,2.4196,2.4183,2.4152,2.4076,2.4066,2.4115,2.4115,2.4005,2.3993,2.3982,2.3917,2.3941,2.3935,2.3932,2.3771,2.377,2.3769,0,0,0,0,0,0,2.4364,2.4348,2.4208,2.4267,2.4248,2.4192,2.4158,2.4149,2.4124,2.4064,2.4053,2.41,2.4005,2.399,2.3931,2.3912,2.3933,2.3928,2.3772,2.3771,2.3769,2.3786,0,0,0,0,0,0,2.437,2.435,2.433,2.4267,2.4245,2.4159,2.4157,2.4146,2.4115,2.4113,2.4047,2.4037,2.4004,2.3939,2.3925,2.3905,2.3923,2.3773,2.3771,2.377,2.3787,2.3786,2.3784,0,0,0,0,0,2.4376,2.4339,2.433,2.4313,2.422,2.4158,2.4145,2.411,2.4114,2.4093,2.4055,2.4039,2.3917,2.3934,2.3917,2.3895,2.3774,2.3772,2.377,2.3788,2.3786,2.3784,0,0,0,0,0,0,2.4399,2.4329,2.4319,2.4259,2.4215,2.4152,2.4125,2.4109,2.4062,2.4061,2.4019,2.4004,2.3948,2.3915,2.3935,2.3842,2.3845,2.3839,2.3864,2.3862,2.3861,2.3869,2.3919,0,0,0,0,0,2.4398,2.4355,2.4296,2.4249,2.4228,2.4181,2.4152,2.4129,2.4081,2.4061,2.4018,2.3971,2.3922,2.3891,2.3842,2.3783,2.3768,2.376,2.3759,2.3758,2.3753,2.3719,2.3715,2.3761,2.3761,2.3761,0,0,2.4394,2.435,2.4325,2.4253,2.4216,2.4171,2.4165,2.4117,2.4084,2.4054,2.3995,2.3962,2.3907,2.3847,2.3819,2.3819,2.3737,2.3755,2.3755,2.375,2.3717,2.3712,2.3709,2.3759,2.376,2.376,0,0,2.4363,2.4327,2.4284,2.4248,2.4193,2.4162,2.4152,2.4091,2.4069,2.401,2.3987,2.3946,2.3863,2.3824,2.3794,2.3752,2.3735,2.3737,2.3729,2.3697,2.3693,2.369,2.3674,2.3669,2.3733,2.3733,2.3733,0,2.4364,2.4297,2.4264,2.4218,2.4187,2.416,2.4116,2.4082,2.4014,2.3992,2.3994,2.389,2.385,2.3782,2.3772,2.3748,2.3735,2.3743,2.3697,2.3693,2.3689,2.3674,2.3668,2.3733,2.3733,2.3733,2.3733,0,2.4301,2.4256,2.4228,2.4164,2.413,2.4085,2.4044,2.4014,2.3994,2.3963,2.3904,2.3856,2.3798,2.3781,2.376,2.3709,2.3711,2.3705,2.3707,2.3686,2.3671,2.3664,2.3734,2.3734,2.3734,2.3734,0,0,2.4279,2.42,2.419,2.4161,2.41,2.4063,2.4018,2.3963,2.3937,2.3892,2.3852,2.3783,2.3778,2.3744,2.3719,2.3692,2.3661,2.3689,2.3687,2.3685,2.3601,2.3605,2.3599,2.3651,2.3649,2.3648,2.3606,0,2.424,2.4159,2.4128,2.4062,2.4019,2.3995,2.3955,2.3913,2.3883,2.3841,2.3808,2.376,2.3757,2.3737,2.3708,2.3671,2.3643,2.3674,2.3612,2.361,2.3625,2.3591,2.3594,2.3556,2.3599,2.3598,2.3598,0,2.4182,2.4138,2.4068,2.4013,2.3994,2.3959,2.3907,2.3868,2.382,2.38,2.3764,2.3741,2.3692,2.37,2.3631,2.3652,2.3626,2.3604,2.3601,2.3593,2.3601,2.358,2.3543,2.3537,2.3588,2.3589,2.3589,0,2.4173,2.4096,2.4044,2.402,2.3955,2.3931,2.3903,2.3855,2.3825,2.3779,2.3759,2.3708,2.3679,2.364,2.3604,2.3613,2.3539,2.3543,2.352,2.3521,2.3503,2.3505,2.346,2.3489,2.3489,2.3489,2.3489,0,2.4131,2.4089,2.4039,2.4007,2.3959,2.3924,2.3877,2.3847,2.3806,2.3767,2.3743,2.3706,2.3662,2.362,2.3592,2.354,2.3527,2.3509,2.3502,2.351,2.3512,2.3491,2.3492,2.3488,2.3488,2.3488,2.3489,0,2.4111,2.4076,2.4018,2.3962,2.3947,2.3914,2.3866,2.3833,2.3804,2.3755,2.3741,2.3694,2.3644,2.3606,2.3539,2.3521,2.3464,2.3457,2.3481,2.3477,2.3456,2.3458,2.3394,2.3384,2.3421,2.3421,2.3421,0,2.4085,2.4053,2.3994,2.3968,2.394,2.3897,2.3866,2.3832,2.38,2.3744,2.3718,2.3667,2.3623,2.3544,2.3503,2.3452,2.3443,2.3424,2.3435,2.3445,2.3441,2.3443,2.3439,2.3422,2.3422,2.3422,2.3422,0,2.4044,2.4029,2.3987,2.3939,2.3904,2.3864,2.3823,2.3803,2.3761,2.3727,2.3676,2.3643,2.3577,2.3525,2.3471,2.344,2.3423,2.3419,2.3411,2.3418,2.3433,2.3424,2.3476,2.342,2.342,2.342,2.3421,2.3421,2.402,2.399,2.3945,2.3899,2.3866,2.3829,2.3796,2.3764,2.3721,2.3666,2.3648,2.3595,2.3549,2.3474,2.3444,2.3401,2.3401,2.3389,2.3386,2.3383,2.3384,2.3442,2.3392,2.3392,2.3391,2.3391,2.3391,0,2.3977,2.3947,2.3906,2.3851,2.3815,2.3805,2.376,2.373,2.3685,2.3644,2.3603,2.3544,2.3495,2.3452,2.34,2.3375,2.3366,2.3362,2.3363,2.3356,2.3387,2.3399,2.337,2.337,2.337,2.337,2.337,2.337,2.395,2.3899,2.3879,2.3811,2.3782,2.3732,2.3707,2.3673,2.364,2.3577,2.3536,2.3509,2.3467,2.3413,2.3367,2.3355,2.3337,2.3335,2.3322,2.3351,2.3354,2.3356,2.3367,2.3332,2.3332,2.3293,2.3293,2.3293]}]]